Weather in Serdar

Turkmenistan     38°58′50″N   56°16′32″E
temp.,
°C
wind,
m/s
gust,
m/s
humid.,
%
clouds,
%
prec.,
mm/h
press.,
hPa
HPBL,
m
16 april, fri
fri1623:00+21sw12365 0.0 101611
02:00+20ssw223957 0.0 101514
05:00+18sw334720 0.0 101617
08:00+18sw2251100 0.2 1017102
11:00+22wnw2235100 0.3 1018768
14:00+24nw322795 0.1 10171442
17:00+26n332643 0.1 10162039
20:00+24nne22294 0.0 101623
17 april, sat
sat1723:00+23se2234100 0.0 101728
02:00+19ssw44425 0.3 101881
05:00+16ssw45541 0.4 101987
08:00+17sw34500 0.0 1021182
11:00+22wsw22310 0.0 1021640
14:00+26n22200 0.0 10201903
17:00+27n32170 0.0 10192587
20:00+25nne23190 0.0 101919
18 april, sun
sun1823:00+22ese22244 0.0 101911
02:00+21ese442689 0.0 101829
05:00+20ese442776 0.0 101829
08:00+20e47274 0.0 1018154
11:00+26e88195 0.0 10171133
14:00+30e541517 0.0 10152165
17:00+31ene44145 0.0 10132554
20:00+27ene4518100 0.0 101351
19 april, mon
mon1923:00+25e3320100 0.0 101324
02:00+22ese2222100 0.0 101213
05:00+22ssw1124100 0.0 101211
08:00+23ssw222269 0.0 101318
11:00+25sw81026100 0.0 1015846
14:00+27wsw101124100 0.0 10151476
17:00+25ssw9926100 0.0 10141038
20:00+23sw812261 0.0 1014334
20 april, tue
tue2023:00+20wsw6113854 0.0 1015308
02:00+18sw5743100 0.0 1014142
05:00+17sw4447100 0.0 101557
08:00+17sw3545100 0.0 1016219
11:00+23sw442824 0.0 1015810
14:00+27nw232145 0.0 10131584
17:00+28n331948 0.0 10111580
20:00+26nne22225 0.0 101112